ATLAS 2 CENTAUR R/B

基本信息
目录编号:
23468
目录名称:
ATLAS 2 CENTAUR R/B
国际标识:
1995-003B
轨道中心:
EARTH
物体状态:
在轨
发射日期:
1995-01-29 UTC
国别:
美国 (US)
轨道信息
数据来源: 国际轨道数据
星历时间: 2026-09-12T13:10:02+0800
半长轴: 15442.806km
偏心率: 0.5684141
轨道倾角: 26.598°
近地点辐角: 81.013°
升交点赤经: 183.384°
平近点角: 336.020°
近地点: 286.76km
远地点: 17842.578km
周期: 318.309分钟
每日圈数: 4.523905
详细信息
发射场:
AFETR
轨道高度:
LEO
数据来源:
AOE Integration Group
参考系:
TEME
时间系统:
UTC
历元类型:
SGP4
2D轨道图
3D轨道图
轨道高度分析图
轨道倾角分析图
轨道综合分析图
查看轨道综合分析图